Date String (YYYY-MM-DD hh:mm:ss) UTC,Instrument flags,Ambient pressure (hPa),Sample flow (lpm),Bypass flow (lpm),Sample temperature (°C),Ambient temperature (°C),ASC tube jacket temperature (°C),LED temperature (°C),Box temperature (°C),Sample RH (%),Span deviation,Mass concentration (μg/m³),Mass concentration (μg/m³),Mass concentration (μg/m³)
DateTimeUTC,F1_M11,P_M11,Q1_M11,Q2_M11,T1_M11,T2_M11,T3_M11,T4_M11,T5_M11,U1_M11,ZSPAN_M11,X0_M11,X2_M11,X1_M11
2022-09-28 04:00:00,,0834.0,5.00,0.00,30.3,27.5,00.0,39.0,32.0,19.6,0000.0,0014.85,0004.98,0003.89
2022-09-28 04:01:00,,0834.0,5.00,0.00,30.3,27.8,00.0,39.0,32.0,19.7,0000.0,0015.97,0005.10,0003.95
2022-09-28 04:02:00,,0834.0,5.01,0.00,30.2,28.0,00.0,39.0,32.0,19.8,0000.0,0016.03,0005.23,0004.01
2022-09-28 04:03:00,,0834.0,5.00,0.00,30.2,28.2,00.0,39.0,32.0,20.0,0000.0,0016.52,0005.33,0004.04
2022-09-28 04:04:00,,0834.0,5.00,0.00,30.2,28.4,00.0,39.0,32.0,20.0,0000.0,0017.57,0005.40,0004.07
2022-09-28 04:05:00,,0834.0,5.00,0.00,30.2,28.6,00.0,38.9,32.0,20.0,0000.0,0019.05,0005.42,0004.10
2022-09-28 04:06:00,,0834.0,4.99,0.00,30.2,28.7,00.0,38.9,32.1,19.9,0000.0,0018.79,0005.36,0004.09
2022-09-28 04:07:00,,0834.0,5.00,0.00,30.2,28.8,00.0,38.9,32.1,19.9,0000.3,0018.58,0005.24,0004.01
2022-09-28 04:08:00,,0834.1,4.99,0.00,30.2,28.8,00.0,38.9,32.1,20.1,0000.0,0017.91,0005.16,0003.95
2022-09-28 04:09:00,,0834.1,5.02,0.00,30.3,28.9,00.0,38.9,32.1,20.0,0000.0,0017.46,0005.03,0003.87
2022-09-28 04:10:00,,0834.1,4.99,0.00,30.3,29.0,00.0,39.0,32.2,19.6,0000.0,0017.18,0004.88,0003.80
2022-09-28 04:11:00,,0834.1,5.01,0.00,30.3,29.0,00.0,39.0,32.2,19.6,0000.0,0016.59,0004.62,0003.67
2022-09-28 04:12:00,,0834.0,4.99,0.00,30.3,29.0,00.0,39.0,32.2,19.5,0000.0,0015.38,0004.47,0003.60
2022-09-28 04:13:00,,0834.1,5.01,0.00,30.3,29.1,00.0,39.0,32.2,19.3,0000.0,0013.67,0004.25,0003.50
2022-09-28 04:14:00,,0834.1,5.00,0.00,30.3,29.1,00.0,39.0,32.2,19.3,0000.0,0013.08,0004.06,0003.44
2022-09-28 04:15:00,,0834.1,5.01,0.00,30.4,29.1,00.0,39.0,32.2,19.5,0000.0,0012.72,0003.92,0003.38
2022-09-28 04:16:00,,0834.1,5.01,0.00,30.4,29.1,00.0,39.0,32.3,19.4,0000.0,0010.77,0003.82,0003.31
2022-09-28 04:17:00,,0834.1,5.00,0.00,30.4,29.2,00.0,39.0,32.3,19.5,0000.0,0010.22,0003.79,0003.28
2022-09-28 04:18:00,,0834.1,4.99,0.00,30.4,29.2,00.0,39.1,32.3,19.7,0000.0,0009.51,0003.76,0003.24
2022-09-28 04:19:00,,0834.1,5.00,0.00,30.4,29.2,00.0,39.1,32.3,19.5,0000.0,0009.81,0003.70,0003.19
2022-09-28 04:20:00,,0834.1,5.00,0.00,30.5,29.2,00.0,39.1,32.3,19.5,0000.0,0009.75,0003.66,0003.17
2022-09-28 04:21:00,,0834.1,4.99,0.00,30.5,29.3,00.0,39.1,32.4,19.5,0000.0,0009.39,0003.67,0003.18
2022-09-28 04:22:00,,0834.1,5.01,0.00,30.5,29.3,00.0,39.1,32.4,19.5,0000.0,0009.65,0003.77,0003.21
2022-09-28 04:23:00,,0834.1,4.99,0.00,30.5,29.3,00.0,39.1,32.4,19.6,0000.0,0010.16,0003.88,0003.26
2022-09-28 04:24:00,,0834.1,5.00,0.00,30.5,29.3,00.0,39.2,32.4,19.5,0000.0,0010.57,0003.94,0003.29
2022-09-28 04:25:00,,0834.1,5.00,0.00,30.5,29.3,00.0,39.2,32.4,19.4,0000.0,0010.55,0004.01,0003.32
2022-09-28 04:26:00,,0834.1,4.99,0.00,30.6,29.3,00.0,39.2,32.4,19.2,0000.0,0010.59,0004.08,0003.34
2022-09-28 04:27:00,,0834.1,5.01,0.00,30.6,29.3,00.0,39.2,32.5,19.1,0000.0,0010.48,0004.10,0003.35
2022-09-28 04:28:00,,0834.0,4.99,0.00,30.6,29.4,00.0,39.2,32.5,19.2,0000.0,0010.72,0004.15,0003.37
2022-09-28 04:29:00,,0834.1,5.01,0.00,30.6,28.8,00.0,39.2,32.4,19.1,0000.0,0011.36,0004.17,0003.39
2022-09-28 04:30:00,,0834.1,5.00,0.00,30.6,27.3,00.0,39.2,32.3,19.1,0000.0,0011.12,0004.20,0003.41
2022-09-28 04:31:00,,0834.0,5.00,0.00,30.5,26.9,00.0,39.1,32.2,19.1,0000.0,0011.16,0004.25,0003.43
2022-09-28 04:32:00,,0834.0,5.01,0.00,30.4,27.0,00.0,39.1,32.1,19.0,0000.0,0011.31,0004.29,0003.41
2022-09-28 04:33:00,,0834.0,5.02,0.00,30.3,27.3,00.0,39.1,32.0,19.2,0000.0,0011.28,0004.26,0003.40
2022-09-28 04:34:00,,0834.0,5.01,0.00,30.3,27.6,00.0,39.0,32.0,19.3,0000.0,0011.04,0004.24,0003.40
2022-09-28 04:35:00,,0834.0,4.98,0.00,30.3,27.9,00.0,39.0,32.0,19.3,0000.0,0011.49,0004.27,0003.39
2022-09-28 04:36:00,,0834.0,5.00,0.00,30.2,28.1,00.0,39.0,32.0,19.3,0000.0,0011.56,0004.31,0003.38
2022-09-28 04:37:00,,0834.0,5.01,0.00,30.2,28.3,00.0,39.0,32.0,19.4,0000.0,0010.95,0004.27,0003.37
2022-09-28 04:38:00,,0834.0,4.99,0.00,30.2,28.5,00.0,39.0,32.0,19.4,0000.0,0010.94,0004.27,0003.39
2022-09-28 04:39:00,,0834.0,5.00,0.00,30.2,28.6,00.0,39.0,32.0,19.3,0000.0,0011.18,0004.20,0003.37
2022-09-28 04:40:00,,0834.0,5.00,0.00,30.2,28.7,00.0,39.0,32.1,19.3,0000.0,0011.09,0004.17,0003.35
2022-09-28 04:41:00,,0834.0,5.00,0.00,30.2,28.7,00.0,39.0,32.1,19.2,0000.0,0010.31,0004.13,0003.33
2022-09-28 04:42:00,,0834.0,4.99,0.00,30.2,28.8,00.0,38.9,32.1,19.1,0000.0,0009.93,0004.05,0003.29
2022-09-28 04:43:00,,0834.0,5.01,0.00,30.2,28.8,00.0,39.0,32.1,19.1,0000.0,0009.76,0003.98,0003.28
2022-09-28 04:44:00,,0834.0,4.99,0.00,30.3,28.9,00.0,39.0,32.1,19.0,0000.0,0009.60,0003.89,0003.26
2022-09-28 04:45:00,,0834.0,5.01,0.00,30.3,28.9,00.0,39.0,32.1,19.0,0000.0,0009.37,0003.82,0003.23
2022-09-28 04:46:00,,0834.0,5.00,0.00,30.3,29.0,00.0,39.0,32.2,19.0,0000.0,0008.70,0003.79,0003.22
2022-09-28 04:47:00,,0834.0,4.99,0.00,30.3,29.0,00.0,39.0,32.2,18.9,0000.0,0008.64,0003.74,0003.22
2022-09-28 04:48:00,,0834.0,5.00,0.00,30.3,29.0,00.0,39.0,32.2,19.0,0000.0,0009.09,0003.75,0003.22
2022-09-28 04:49:00,,0834.0,4.99,0.00,30.3,29.1,00.0,39.0,32.2,18.8,0000.0,0009.92,0003.79,0003.22
2022-09-28 04:50:00,,0834.0,4.99,0.00,30.4,29.1,00.0,39.0,32.2,18.7,0000.0,0009.32,0003.82,0003.22
2022-09-28 04:51:00,,0834.0,5.01,0.00,30.4,29.1,00.0,39.0,32.3,18.7,0000.0,0008.81,0003.83,0003.22
2022-09-28 04:52:00,,0834.0,5.00,0.00,30.4,29.1,00.0,39.0,32.3,18.6,0000.0,0008.80,0003.85,0003.22
2022-09-28 04:53:00,,0834.0,4.99,0.00,30.4,29.1,00.0,39.1,32.3,18.5,0000.0,0008.73,0003.83,0003.22
2022-09-28 04:54:00,,0834.1,5.00,0.00,30.4,29.2,00.0,39.1,32.3,18.6,0000.0,0008.96,0003.81,0003.22
2022-09-28 04:55:00,,0834.1,4.99,0.00,30.4,29.2,00.0,39.1,32.3,18.6,0000.0,0009.56,0003.84,0003.23
2022-09-28 04:56:00,,0834.1,4.99,0.00,30.5,29.2,00.0,39.1,32.3,18.4,0000.0,0010.21,0003.89,0003.24
2022-09-28 04:57:00,,0834.1,5.02,0.00,30.5,29.2,00.0,39.1,32.3,18.5,0000.0,0010.54,0003.85,0003.22
2022-09-28 04:58:00,,0834.1,4.99,0.00,30.5,29.3,00.0,39.1,32.4,18.8,0000.0,0010.63,0003.87,0003.23
2022-09-28 04:59:00,,0834.1,5.01,0.00,30.5,29.3,00.0,39.1,32.4,18.8,0000.0,0010.28,0003.91,0003.26
